Погода в Колине

Чехия     50°01′26″N   15°11′54″E
темп.,
°C
ветер,
м/с
пор.,
м/с
влажн.,
%
обл.,
%
осадки,
мм/ч
давл.,
гПа
погр.,
м
18 апреля, вс
вс1823:00+3зсз1294100 0.0 102142
02:00+3зсз119499 0.0 102133
05:00+3зсз2393100 0.1 102096
08:00+4з1392100 0.1 1020148
11:00+5зсз3488100 0.0 1020365
14:00+8зюз1174100 0.1 1019800
17:00+10всв0163100 0.0 1018964
20:00+7в1179100 0.1 101910
19 апреля, пн
пн1923:00+7ссв1181100 0.0 101922
02:00+4ссв119391 0.0 102014
05:00+3ссв119599 0.0 101911
08:00+5ссз118795 0.0 1019146
11:00+10св3568100 0.0 10181074
14:00+12св6660100 0.4 10171459
17:00+9с2686100 0.7 1017479
20:00+7з1195100 1.9 101713
20 апреля, вт
вт2023:00+6з2295100 0.0 101723
02:00+5зсз1196100 0.0 101610
05:00+3сз119552 0.0 101612
08:00+6всв118794 0.0 1017165
11:00+11св345865 0.1 10161341
14:00+13св234899 0.1 10151822
17:00+13сз22489 0.0 10141372
20:00+9зюз117083 0.4 101410
21 апреля, ср
ср2123:00+8ююз117288 0.1 101513
02:00+7з117972 0.1 101514
05:00+6з118577 0.2 101513
08:00+8юз137486 0.3 1015216
11:00+12з446827 0.3 10151000
14:00+13зсз566875 2.7 10141268
17:00+13зсз356130 0.9 10131207
20:00+9сз367629 1.2 1014101
22 апреля, чт
чт2223:00+6зюз22856 0.0 101623
02:00+5з238668 0.0 101734
05:00+6сз3691100 0.5 1017451
08:00+4зсз3788100 2.1 1019688
11:00+7сз575620 0.1 10201380
14:00+9сз794564 0.1 10192073
17:00+9сз795291 0.0 10201794
20:00+6сз5106879 0.0 1022376